Location: Holcomb Observatory
(44.4922°N, 73.1654°W)
Time: 22:25:34
(UTC-04:00)

Cosmos 2360 Rocket - Visible Passes

Search period start: 01 September 2015 00:00
Search period end: 11 September 2015 00:00
Orbit: 835 x 844 km, 71.0° (Epoch: 31 August)

Date Brightness Start Highest point End Pass type
(mag) Time Alt. Az. Time Alt. Az. Time Alt. Az.
01 Sep 3.1 02:12:18 44° NNE 02:12:18 44° NNE 02:16:07 10° NNE visible
01 Sep 4.1 03:54:04 15° WNW 03:55:30 16° NW 03:58:45 10° N visible
02 Sep 3.4 01:57:03 38° NNE 01:57:03 38° NNE 02:00:29 10° NNE visible
02 Sep 4.1 03:38:49 16° NW 03:39:48 16° NW 03:43:14 10° N visible
03 Sep 3.6 01:41:47 34° NNE 01:41:47 34° NNE 01:44:51 10° NNE visible
03 Sep 4.1 03:23:33 17° NW 03:24:06 17° NW 03:27:41 10° N visible
04 Sep 3.9 01:26:30 29° NNE 01:26:30 29° NNE 01:29:12 10° NNE visible
04 Sep 4.1 03:08:16 18° NW 03:08:24 18° NW 03:12:08 10° N visible
05 Sep 4.0 01:11:12 26° NNE 01:11:12 26° NNE 01:13:34 10° NNE visible
05 Sep 4.1 02:52:57 19° NW 02:52:57 19° NW 02:56:35 10° N visible
06 Sep 4.2 00:55:52 23° NNE 00:55:52 23° NNE 00:57:55 10° NNE visible
06 Sep 4.1 02:37:38 19° NW 02:37:38 19° NW 02:41:01 10° N visible
07 Sep 4.3 00:40:32 21° NNE 00:40:32 21° NNE 00:42:17 10° NNE visible
07 Sep 4.2 02:22:17 20° NNW 02:22:17 20° NNW 02:25:27 10° N visible
08 Sep 4.4 00:25:10 19° NNE 00:25:10 19° NNE 00:26:38 10° NNE visible
08 Sep 4.2 02:06:56 20° NNW 02:06:56 20° NNW 02:09:53 10° N visible
09 Sep 4.5 00:09:48 17° NNE 00:09:48 17° NNE 00:10:59 10° NNE visible
09 Sep 4.3 01:51:33 20° NNW 01:51:33 20° NNW 01:54:19 10° N visible
09 Sep 4.6 23:54:24 15° NNE 23:54:24 15° NNE 23:55:20 10° NNE visible
10 Sep 4.3 01:36:10 20° NNW 01:36:10 20° NNW 01:38:44 10° N visible
10 Sep 4.6 23:39:00 14° NE 23:39:00 14° NE 23:39:40 10° NNE visible
